Location: ????????
(55.0808°N, 38.5463°E)
Time: 02:09:15
(UTC+00:00)

Nimbus 3 Rocket - Pass Details

Date: 27 September 2024
Orbit: 1072 x 1131 km, 99.9° (Epoch: 03 October)

Event Time Altitude Azimuth Distance (km) Brightness Sun altitude
Rises 00:44:29 0° 20° (NNE) 3,913 9.0 -22.2°
Reaches altitude 10° 00:48:16 10° 359° (N) 2,943 7.9 -21.7°
Maximum altitude 00:51:41 15° 327° (NNW) 2,582 7.2 -21.3°
Enters shadow 00:54:40 11° 299° (WNW) 2,848 7.1 -21.0°
